TimeEDT,TemperatureF,Dew PointF,Humidity,Sea Level PressureIn,VisibilityMPH,Wind Direction,Wind SpeedMPH,Gust SpeedMPH,PrecipitationIn,Events,Conditions,WindDirDegrees,DateUTC
12:14 AM,60.1,58.3,94,30.02,10.0,NE,3.5,-,N/A,,Overcast,50,2013-09-30 04:14:00
12:35 AM,60.3,58.3,93,30.01,10.0,NE,5.8,-,N/A,,Overcast,40,2013-09-30 04:35:00
12:54 AM,60.4,58.5,93,30.01,10.0,Calm,Calm,-,N/A,,Drizzle,0,2013-09-30 04:54:00
1:15 AM,60.4,58.5,93,30.01,10.0,Calm,Calm,-,N/A,,Overcast,0,2013-09-30 05:15:00
1:35 AM,60.4,58.3,93,30.01,10.0,Calm,Calm,-,N/A,,Overcast,0,2013-09-30 05:35:00
1:54 AM,60.8,58.3,91,30.02,10.0,Calm,Calm,-,N/A,,Overcast,0,2013-09-30 05:54:00
2:15 AM,60.4,58.1,92,30.02,7.0,NNW,3.5,-,N/A,Rain,Rain,340,2013-09-30 06:15:00
2:34 AM,60.3,58.1,93,30.02,4.0,NNW,3.5,-,N/A,,Overcast,340,2013-09-30 06:34:00
2:54 AM,60.3,58.3,93,30.01,7.0,North,4.6,-,N/A,,Overcast,350,2013-09-30 06:54:00
3:15 AM,60.3,58.1,93,30.00,10.0,North,6.9,-,N/A,,Overcast,360,2013-09-30 07:15:00
3:34 AM,60.4,58.1,92,30.00,10.0,Calm,Calm,-,N/A,,Overcast,0,2013-09-30 07:34:00
3:54 AM,60.4,58.1,92,30.01,10.0,Calm,Calm,-,N/A,,Overcast,0,2013-09-30 07:54:00
4:15 AM,60.4,58.1,92,30.01,7.0,North,3.5,-,N/A,Rain,Light Rain,10,2013-09-30 08:15:00
4:34 AM,60.1,57.7,92,30.01,7.0,Calm,Calm,-,N/A,,Light Drizzle,0,2013-09-30 08:34:00
4:55 AM,59.9,57.7,93,30.01,10.0,Calm,Calm,-,N/A,,Overcast,0,2013-09-30 08:55:00
5:15 AM,60.4,58.1,92,30.01,10.0,Calm,Calm,-,N/A,,Overcast,0,2013-09-30 09:15:00
5:34 AM,59.9,57.6,92,30.01,10.0,Calm,Calm,-,N/A,,Overcast,0,2013-09-30 09:34:00
5:55 AM,59.9,57.6,92,30.01,10.0,NNW,3.5,-,N/A,,Overcast,340,2013-09-30 09:55:00
6:15 AM,60.3,57.6,91,30.01,10.0,West,3.5,-,N/A,,Overcast,270,2013-09-30 10:15:00
6:34 AM,59.9,57.2,91,30.02,10.0,NNW,5.8,-,N/A,,Overcast,340,2013-09-30 10:34:00
6:55 AM,59.5,56.8,91,30.02,10.0,Calm,Calm,-,N/A,,Overcast,0,2013-09-30 10:55:00
7:15 AM,59.9,56.7,89,30.03,10.0,Calm,Calm,-,N/A,,Overcast,0,2013-09-30 11:15:00
7:34 AM,59.5,56.5,90,30.03,10.0,NNE,3.5,-,N/A,,Overcast,20,2013-09-30 11:34:00
7:55 AM,59.4,56.3,90,30.03,10.0,North,4.6,-,N/A,,Overcast,360,2013-09-30 11:55:00
8:14 AM,59.5,56.3,89,30.04,10.0,North,3.5,-,N/A,,Overcast,10,2013-09-30 12:14:00
8:34 AM,59.7,55.8,87,30.04,10.0,North,3.5,-,N/A,,Overcast,10,2013-09-30 12:34:00
8:55 AM,59.4,54.9,85,30.04,10.0,North,4.6,-,N/A,,Overcast,360,2013-09-30 12:55:00
9:14 AM,59.5,54.7,84,30.05,10.0,NNE,3.5,-,N/A,,Overcast,20,2013-09-30 13:14:00
9:34 AM,59.9,54.9,83,30.05,10.0,Calm,Calm,-,N/A,,Overcast,0,2013-09-30 13:34:00
9:55 AM,60.1,54.3,81,30.05,10.0,Calm,Calm,-,N/A,,Overcast,0,2013-09-30 13:55:00
10:14 AM,61.2,54.9,80,30.05,10.0,North,3.5,-,N/A,,Overcast,360,2013-09-30 14:14:00
10:35 AM,61.5,54.1,77,30.05,10.0,Calm,Calm,-,N/A,,Overcast,0,2013-09-30 14:35:00
10:54 AM,62.1,54.3,76,30.04,10.0,Calm,Calm,-,N/A,,Overcast,0,2013-09-30 14:54:00
11:14 AM,63.0,53.8,72,30.03,10.0,ENE,3.5,-,N/A,,Scattered Clouds,60,2013-09-30 15:14:00
11:35 AM,64.0,54.3,71,30.03,10.0,Calm,Calm,-,N/A,,Clear,0,2013-09-30 15:35:00
11:54 AM,64.4,54.5,70,30.02,10.0,SE,3.5,-,N/A,,Clear,140,2013-09-30 15:54:00
12:14 PM,66.2,54.0,65,30.02,10.0,Calm,Calm,-,N/A,,Scattered Clouds,0,2013-09-30 16:14:00
12:35 PM,67.3,54.5,63,30.01,10.0,Calm,Calm,-,N/A,,Scattered Clouds,0,2013-09-30 16:35:00
12:54 PM,68.5,52.2,56,30.01,10.0,South,6.9,-,N/A,,Scattered Clouds,190,2013-09-30 16:54:00
1:15 PM,69.1,50.2,51,30.02,10.0,SW,8.1,-,N/A,,Scattered Clouds,230,2013-09-30 17:15:00
1:35 PM,68.5,51.3,54,30.01,10.0,SSW,6.9,-,N/A,,Scattered Clouds,210,2013-09-30 17:35:00
1:54 PM,70.2,52.0,52,30.01,10.0,SSW,5.8,-,N/A,,Scattered Clouds,200,2013-09-30 17:54:00
2:15 PM,70.7,50.9,49,30.00,10.0,SW,10.4,-,N/A,,Scattered Clouds,220,2013-09-30 18:15:00
2:35 PM,71.4,50.4,47,29.99,10.0,SW,8.1,-,N/A,,Clear,220,2013-09-30 18:35:00
2:54 PM,71.6,47.7,43,29.98,10.0,WSW,11.5,-,N/A,,Scattered Clouds,250,2013-09-30 18:54:00
3:15 PM,72.0,47.3,41,29.98,10.0,WSW,10.4,-,N/A,,Scattered Clouds,250,2013-09-30 19:15:00
3:34 PM,72.3,47.1,41,29.97,10.0,WSW,9.2,-,N/A,,Scattered Clouds,240,2013-09-30 19:34:00
3:55 PM,71.6,47.7,43,29.97,10.0,WSW,6.9,-,N/A,,Scattered Clouds,250,2013-09-30 19:55:00
4:14 PM,70.9,47.8,44,29.96,10.0,WSW,9.2,-,N/A,,Mostly Cloudy,250,2013-09-30 20:14:00
4:35 PM,72.0,48.0,43,29.96,10.0,SW,10.4,-,N/A,,Mostly Cloudy,230,2013-09-30 20:35:00
4:55 PM,71.6,47.8,43,29.95,10.0,SW,6.9,-,N/A,,Scattered Clouds,230,2013-09-30 20:55:00
5:14 PM,72.3,47.3,41,29.96,10.0,WSW,8.1,-,N/A,,Scattered Clouds,240,2013-09-30 21:14:00
5:35 PM,72.1,46.9,41,29.97,10.0,WSW,10.4,-,N/A,,Scattered Clouds,240,2013-09-30 21:35:00
5:54 PM,71.6,47.1,42,29.97,10.0,WSW,6.9,-,N/A,,Mostly Cloudy,240,2013-09-30 21:54:00
6:15 PM,70.3,47.3,44,29.97,10.0,SW,4.6,-,N/A,,Scattered Clouds,230,2013-09-30 22:15:00
6:34 PM,70.5,47.3,44,29.97,10.0,WSW,4.6,-,N/A,,Scattered Clouds,240,2013-09-30 22:34:00
6:55 PM,69.4,49.1,48,29.97,10.0,SW,4.6,-,N/A,,Clear,230,2013-09-30 22:55:00
7:14 PM,68.4,49.5,51,29.97,10.0,SSW,4.6,-,N/A,,Clear,210,2013-09-30 23:14:00
7:35 PM,68.0,50.0,52,29.97,10.0,SSW,4.6,-,N/A,,Clear,210,2013-09-30 23:35:00
7:55 PM,67.1,50.2,55,29.98,10.0,Calm,Calm,-,N/A,,Clear,0,2013-09-30 23:55:00
8:14 PM,65.8,50.9,58,29.99,10.0,SSW,3.5,-,N/A,,Clear,210,2013-10-01 00:14:00
8:35 PM,65.1,51.1,60,29.99,10.0,Calm,Calm,-,N/A,,Clear,0,2013-10-01 00:35:00
8:55 PM,63.7,51.8,65,29.99,10.0,Calm,Calm,-,N/A,,Clear,0,2013-10-01 00:55:00
9:14 PM,62.6,52.2,69,29.99,10.0,Calm,Calm,-,N/A,,Clear,0,2013-10-01 01:14:00
9:35 PM,61.9,52.7,72,29.99,10.0,Calm,Calm,-,N/A,,Clear,0,2013-10-01 01:35:00
9:54 PM,62.2,52.5,70,30.00,10.0,South,3.5,-,N/A,,Clear,190,2013-10-01 01:54:00
10:14 PM,62.8,52.7,70,29.99,10.0,Calm,Calm,-,N/A,,Clear,0,2013-10-01 02:14:00
10:35 PM,62.4,55.4,78,30.00,10.0,SSW,3.5,-,N/A,,Clear,210,2013-10-01 02:35:00
10:54 PM,62.2,56.1,80,30.00,10.0,South,3.5,-,N/A,,Clear,190,2013-10-01 02:54:00
11:14 PM,61.0,55.6,82,30.00,10.0,Calm,Calm,-,N/A,,Clear,0,2013-10-01 03:14:00
11:35 PM,60.6,55.2,82,30.00,10.0,Calm,Calm,-,N/A,,Clear,0,2013-10-01 03:35:00
11:54 PM,59.0,54.9,86,30.00,10.0,Calm,Calm,-,N/A,,Clear,0,2013-10-01 03:54:00